Wind_Speed
32 32 28 22 18 18 20 21 22 23 23 23 23 23 21 20 20 22 24 26 30 32 32 33 34 33 32 33 37 42 45 47 47 45 42 40 37 34 32 28 24 20 19 20 18 15 13 8 3 2 3 5 3 3 4 5 6 6 6 7 8 10 12 13 14 14 14 15 16 18 19 19 19 17 16 16 15 14 13 13 12 12 12 14 15 14
32 30 25 20 19 20 20 21 22 22 23 23 24 23 21 19 18 21 25 27 30 31 30 31 33 33 33 33 36 42 45 46 45 43 41 40 38 36 33 30 26 22 21 20 17 15 14 9 6 5 6 6 4 3 4 5 7 7 7 6 7 9 12 15 15 15 15 16 17 18 19 19 18 17 15 15 14 14 14 14 13 13 14 15 15 15
30 27 22 20 20 21 21 22 22 22 23 23 23 22 19 18 18 21 25 27 30 30 28 29 32 34 34 33 36 42 44 43 43 41 40 38 36 35 33 31 26 22 21 19 16 15 13 10 8 7 8 7 6 4 4 6 7 8 8 7 8 9 12 15 16 16 15 15 17 18 19 19 18 16 14 14 15 15 15 15 14 14 14 14 15 14
28 24 22 23 24 23 23 24 23 22 22 22 22 20 18 18 18 21 25 28 30 28 26 29 33 34 32 30 34 38 39 39 40 40 39 37 35 33 31 30 26 23 22 19 17 16 14 13 11 9 9 8 6 6 6 7 8 9 10 9 9 10 12 14 16 16 15 16 18 18 19 19 18 16 15 15 16 17 17 16 15 14 14 14 14 14
25 23 25 28 27 25 24 23 23 22 21 21 21 18 17 19 21 22 25 28 28 26 25 29 32 31 29 29 31 34 35 35 36 36 35 34 34 33 32 30 27 24 22 20 18 17 16 14 12 11 10 8 7 7 9 10 10 11 12 12 11 12 14 16 18 18 18 19 20 20 19 19 18 17 17 18 18 19 19 17 15 15 15 14 15 15
23 22 28 29 26 24 23 22 22 20 20 20 19 17 18 21 24 24 25 27 26 25 26 30 30 28 28 28 29 30 32 33 32 32 31 32 31 31 30 28 25 23 21 18 16 15 15 14 13 11 10 9 9 10 12 13 12 12 13 13 13 14 16 18 19 19 19 20 20 20 20 20 20 20 20 19 19 19 19 17 16 17 16 16 17 17
20 22 28 28 25 23 22 21 20 20 19 18 17 19 22 24 25 25 25 25 26 26 26 29 28 25 25 24 25 27 29 29 29 30 30 29 28 29 28 25 24 22 19 16 14 14 15 15 13 10 9 10 12 14 16 15 13 13 13 13 13 14 16 17 17 17 18 19 19 20 20 21 22 21 20 19 20 19 17 18 18 18 18 18 19 18
18 23 27 26 25 24 21 20 20 20 19 18 19 22 23 25 26 25 25 26 28 27 26 27 25 22 20 21 23 25 26 27 27 28 28 27 26 26 25 24 23 21 18 16 16 16 16 15 12 10 10 12 15 18 17 15 14 13 12 11 11 13 15 15 15 15 16 17 19 20 21 22 21 20 20 20 20 18 17 19 19 19 19 19 19 19
20 25 26 26 26 24 21 21 22 22 21 20 21 22 24 25 26 25 24 25 28 27 25 26 24 20 21 24 24 24 24 24 24 24 24 23 23 22 22 22 21 20 19 17 18 17 16 14 12 12 13 15 18 18 16 14 13 12 10 10 11 13 14 15 15 16 17 18 19 20 21 23 23 22 22 22 20 18 18 19 19 20 20 20 20 19
26 27 27 29 27 23 22 23 24 22 21 23 24 23 24 25 25 24 23 25 29 28 25 24 23 22 25 25 24 23 22 21 21 21 21 21 21 21 20 20 19 20 20 20 20 19 17 15 15 15 15 17 17 16 14 13 12 12 11 12 13 14 14 15 16 18 20 19 19 20 22 25 25 25 24 24 22 20 20 20 20 20 21 21 20 19
27 27 29 29 24 23 24 24 23 22 23 25 25 24 24 24 24 23 23 26 31 30 27 25 24 26 28 25 25 25 23 23 20 19 20 20 20 20 20 21 21 22 23 23 22 20 17 16 15 16 16 16 17 16 14 12 12 13 13 13 13 13 14 14 15 17 19 20 21 22 24 25 26 28 29 26 23 22 21 21 21 22 22 21 20 18
27 27 27 24 23 24 25 24 23 23 24 24 23 22 23 24 24 24 25 28 32 31 28 26 26 29 29 26 26 27 26 25 23 21 20 19 20 21 22 23 25 26 26 25 24 21 17 16 15 16 16 16 16 16 14 12 12 13 13 12 12 13 14 13 14 16 17 18 19 19 20 21 21 25 27 24 23 22 22 22 23 23 22 21 20 18
27 26 24 22 24 25 24 24 24 23 23 22 22 22 23 24 25 26 26 27 30 30 28 27 27 28 28 26 26 27 27 26 25 24 22 21 22 23 25 27 30 31 29 28 26 21 17 17 17 17 18 18 17 16 14 12 12 12 12 12 12 13 14 13 14 16 16 14 14 14 15 15 16 19 20 20 21 22 23 23 22 22 21 21 21 19
26 25 24 22 23 23 23 24 23 23 22 22 21 22 23 25 26 26 26 26 28 30 29 27 27 26 26 26 27 27 28 28 26 25 24 23 24 26 28 29 32 32 29 27 25 17 15 17 19 20 20 19 18 17 14 13 12 12 12 12 12 13 14 14 14 15 15 14 13 12 12 12 15 17 19 21 22 22 22 21 21 21 21 21 21 20
26 25 24 23 23 23 23 23 23 23 23 22 21 22 22 24 25 25 24 24 26 30 30 27 26 26 25 25 26 26 26 26 25 24 23 23 25 27 28 28 29 29 26 26 25 18 17 19 20 22 23 21 20 17 15 14 13 12 12 13 14 16 16 16 15 15 14 12 12 12 10 11 13 16 19 20 20 20 20 19 20 20 19 19 19 20
27 25 24 23 23 24 24 24 25 25 24 23 24 23 22 23 23 23 23 23 24 28 32 30 28 28 26 25 26 25 24 24 23 23 22 20 21 23 24 22 23 27 25 24 24 21 20 20 21 23 23 22 20 17 15 15 13 13 14 15 16 18 18 16 14 13 12 12 12 11 10 11 14 15 17 19 19 20 20 19 19 18 17 18 19 18
26 24 24 24 24 25 25 26 26 26 25 24 24 23 21 20 21 21 21 21 22 25 31 34 32 30 28 27 26 25 25 24 23 23 21 18 17 18 20 18 21 24 24 24 24 21 20 20 21 22 22 21 19 17 16 15 14 14 16 18 19 18 15 12 12 12 13 14 15 14 13 14 16 17 18 19 19 20 20 19 19 18 18 18 18 17
25 24 25 25 26 26 26 26 26 26 25 24 23 22 21 20 21 21 20 20 21 23 26 32 34 33 31 29 28 26 26 25 24 23 22 21 20 19 20 19 20 21 23 25 24 21 20 20 22 23 23 21 18 17 17 16 15 16 18 20 19 15 11 10 10 14 16 18 19 19 18 18 18 18 18 19 19 20 20 20 19 19 18 18 17 16
26 26 27 28 28 28 28 27 26 25 25 24 22 21 21 21 21 21 20 20 20 22 23 26 31 32 31 30 29 28 26 25 24 23 22 23 24 23 22 20 20 19 21 24 24 22 21 23 25 25 22 20 18 16 16 16 15 16 18 19 17 14 14 12 12 14 17 18 19 19 20 20 19 17 16 17 19 20 20 20 19 19 18 17 16 15
27 27 29 30 30 31 30 29 27 25 24 24 24 23 23 23 22 22 21 21 21 22 23 23 26 29 30 30 30 29 28 26 25 24 24 24 25 25 23 21 20 19 19 21 23 25 26 26 26 23 19 18 18 17 16 16 16 17 18 18 18 19 19 17 16 17 15 15 16 16 18 19 18 16 15 16 18 19 18 18 18 17 16 16 16 16
28 29 30 31 32 32 32 30 29 27 25 25 25 24 24 24 24 24 23 23 23 23 23 24 24 26 27 29 29 28 26 25 24 23 23 23 24 23 22 21 20 18 16 18 22 28 29 27 26 22 19 19 20 19 17 17 18 20 20 20 19 20 20 19 18 19 18 16 16 15 16 17 17 17 17 17 18 18 17 17 16 16 15 15 15 16
30 30 31 32 32 33 33 32 31 30 28 27 26 25 25 25 25 26 26 25 25 25 25 25 25 24 24 26 26 24 23 22 20 20 20 21 22 20 19 20 20 19 18 18 22 26 28 27 24 19 17 18 19 18 17 17 18 20 22 23 22 20 20 19 19 19 20 20 19 17 17 18 19 18 18 18 18 18 18 17 17 16 15 13 12 12
30 30 32 33 33 34 34 33 32 31 30 30 28 27 27 26 26 27 27 26 26 26 25 26 25 23 23 23 23 22 22 21 19 20 20 20 21 20 19 19 20 20 19 18 19 21 23 23 20 15 14 15 17 17 16 16 17 19 20 22 24 23 21 19 19 19 19 21 23 21 20 21 21 21 20 19 19 19 18 17 16 16 14 13 11 10
30 31 32 33 34 34 34 33 33 32 31 31 30 29 28 27 26 26 26 26 26 26 26 26 25 23 22 22 23 22 22 21 20 20 20 20 20 20 19 19 19 19 19 19 18 19 18 17 15 14 14 15 15 15 16 16 17 19 21 23 25 26 24 20 18 18 19 21 23 23 22 22 24 24 22 21 20 19 18 17 16 15 14 13 11 10
31 31 32 33 33 35 36 35 34 33 33 31 31 30 30 29 28 27 27 27 27 27 27 26 26 24 22 22 22 22 22 22 21 21 20 19 19 19 20 21 21 21 21 21 20 19 18 16 15 14 14 15 16 16 17 17 19 22 25 25 24 24 23 20 18 20 21 21 21 22 23 23 25 25 24 23 21 19 18 17 17 16 15 14 12 12
33 32 32 33 33 35 36 36 34 33 33 33 33 32 32 31 30 29 28 28 28 27 27 27 26 24 23 22 22 22 23 23 22 21 20 19 18 18 19 20 20 22 25 25 23 21 20 18 16 15 16 17 18 18 18 19 21 23 24 22 21 22 22 20 20 22 21 19 18 21 23 24 24 24 25 25 22 20 18 18 18 18 16 15 14 13
32 33 33 33 33 33 34 34 34 34 35 35 35 35 34 33 31 30 30 30 29 28 28 27 26 25 25 24 23 22 22 22 21 21 20 19 19 20 21 20 18 18 21 24 22 20 19 17 17 17 18 18 18 19 20 21 22 22 21 21 21 21 20 20 20 21 19 17 17 18 20 22 24 25 26 25 23 20 18 17 17 17 16 15 14 13
33 32 33 33 33 32 33 34 34 35 35 35 35 35 35 34 33 31 31 31 30 30 29 28 28 27 27 26 25 23 22 21 21 21 22 21 20 21 21 20 18 16 14 15 15 15 16 17 18 17 16 16 17 19 21 22 21 21 21 21 21 20 19 19 19 19 18 17 17 18 19 22 25 28 28 25 23 21 18 17 17 15 14 14 13 14
33 34 33 33 33 33 32 32 33 34 34 35 35 35 35 35 34 32 32 31 31 30 29 28 28 28 29 29 28 26 24 22 21 22 22 21 21 20 20 20 20 18 15 13 12 13 14 16 17 16 15 16 17 18 20 21 21 21 21 22 22 21 20 18 18 19 19 19 18 19 19 20 22 28 30 26 23 21 19 17 16 15 14 14 14 14
29 33 34 33 33 34 33 32 32 33 34 35 35 36 36 35 35 34 33 32 32 31 30 29 29 29 29 29 29 29 28 26 24 23 22 21 21 20 19 19 19 18 16 16 15 15 16 17 17 16 15 16 17 18 19 19 19 20 21 22 22 21 20 19 18 18 18 18 18 18 18 18 18 22 27 27 24 23 21 18 16 15 15 14 14 13
25 27 31 32 32 33 33 33 32 32 33 34 35 36 37 37 36 36 35 34 33 33 32 31 30 29 28 28 28 29 28 28 26 25 22 21 20 21 20 19 18 17 16 16 16 15 16 17 18 17 17 17 17 17 18 18 18 19 20 20 21 20 20 19 19 19 17 17 17 17 17 17 15 15 20 24 24 24 23 20 17 15 14 14 14 13
25 24 25 28 30 32 32 32 32 32 32 31 32 34 36 38 38 37 36 35 35 35 34 32 30 29 28 27 26 27 27 27 27 27 24 21 21 24 23 21 20 20 19 19 18 18 18 20 20 20 20 19 18 18 17 18 18 18 18 19 19 20 20 20 20 20 20 19 19 18 18 17 15 14 16 20 21 22 22 21 19 17 15 15 15 14
27 25 22 21 23 27 31 31 31 31 31 31 30 30 30 31 35 37 36 36 36 36 36 34 31 30 29 28 26 27 28 28 28 28 26 23 22 23 23 22 22 22 22 21 21 22 23 23 22 22 21 20 20 19 18 18 18 18 18 18 20 20 21 22 22 23 23 22 21 19 18 18 18 17 17 18 19 20 20 20 19 18 17 16 16 16
27 26 24 22 21 23 25 27 29 29 30 30 30 29 27 27 29 32 34 35 35 37 38 36 33 32 31 29 27 27 28 29 30 29 28 26 24 23 22 22 22 22 22 22 22 22 22 21 20 20 20 20 20 19 19 19 20 20 20 21 21 22 23 24 24 24 23 22 21 20 19 19 19 20 20 19 19 20 21 20 20 19 19 18 18 18
27 28 26 22 21 21 21 21 23 24 26 27 27 27 28 27 28 29 30 31 32 34 37 38 36 34 32 29 27 27 27 29 29 29 29 28 27 26 25 23 23 24 23 22 21 21 21 20 18 18 19 19 19 19 20 20 21 21 22 22 22 23 23 23 23 23 22 21 21 21 21 21 21 21 21 21 21 21 22 23 23 22 21 21 21 21
23 26 26 20 19 19 19 18 16 16 20 24 24 23 24 24 25 25 24 24 26 28 32 36 36 34 32 29 27 27 27 27 27 28 29 28 28 29 26 23 24 25 23 20 19 21 22 20 17 18 18 18 19 19 20 20 20 20 20 20 20 21 22 22 22 23 22 22 22 23 23 23 23 23 23 23 23 23 24 25 24 23 23 23 23 24
19 20 21 18 17 17 17 18 16 14 15 17 16 14 14 15 16 17 18 19 22 24 27 30 32 33 32 29 27 27 28 28 27 28 28 28 28 28 26 24 25 25 23 21 22 23 23 20 18 19 20 20 20 20 19 20 20 20 20 20 20 20 21 22 23 24 24 24 24 24 24 25 25 26 26 26 26 26 26 26 26 24 24 25 26 26
25 21 19 18 16 15 15 16 16 15 15 13 10 9 9 9 10 13 16 19 21 22 24 27 28 28 29 27 26 26 27 28 29 30 30 29 28 28 27 26 27 27 26 25 25 25 25 22 21 22 22 22 21 20 20 20 20 21 22 22 23 24 24 25 25 25 26 26 26 26 27 28 29 30 30 30 30 30 30 30 29 29 29 29 30 30
27 24 23 20 18 17 17 17 17 17 17 16 13 11 10 9 9 11 14 17 20 20 22 25 26 25 25 23 22 22 22 22 23 25 26 26 24 24 24 25 27 29 29 28 27 28 29 27 25 25 24 24 24 23 23 22 21 22 23 25 27 28 29 29 29 30 30 30 31 31 32 33 34 34 34 34 34 33 33 33 33 33 33 33 33 33
27 24 24 22 20 19 19 20 20 20 19 19 18 17 15 14 12 12 13 14 16 18 19 21 23 25 26 25 24 23 22 21 20 20 20 21 23 23 24 25 25 25 24 23 23 25 27 27 26 26 24 24 24 24 24 23 22 24 27 30 31 31 31 31 32 33 35 35 35 36 36 37 38 38 37 37 37 36 36 36 37 37 37 37 37 36
25 25 24 23 22 21 21 21 21 21 20 20 20 19 18 19 18 16 16 15 14 16 18 20 22 24 26 28 29 29 29 28 28 26 23 23 25 26 25 26 27 26 24 23 23 23 25 26 26 26 25 24 24 24 23 23 23 25 28 30 31 31 31 31 32 33 35 36 36 36 37 38 39 39 39 39 39 39 39 38 38 37 37 37 37 37
22 22 23 23 23 22 22 21 21 20 19 19 19 17 17 19 19 18 18 18 16 16 18 20 23 25 26 27 29 30 31 32 32 33 32 31 31 31 30 31 31 31 30 29 28 28 29 29 30 30 30 30 31 30 31 31 30 29 28 28 28 27 25 25 27 30 32 34 35 36 37 37 38 37 37 37 37 37 37 36 36 36 37 37 37 37
21 22 22 23 23 22 22 22 22 21 20 21 21 19 18 19 19 18 20 21 20 20 20 20 22 24 25 27 28 29 30 31 31 31 31 31 32 33 34 35 35 34 33 31 31 31 32 32 33 34 35 35 36 36 36 36 35 34 34 33 32 31 28 26 27 28 30 32 33 35 35 35 36 35 35 35 36 37 38 39 40 42 42 42 42 42
19 21 22 23 23 23 23 23 22 22 21 22 22 21 20 21 20 20 22 24 24 24 25 25 24 23 24 24 25 26 28 29 29 29 29 29 29 30 31 33 34 34 34 33 33 32 32 33 33 34 35 36 36 37 38 38 38 39 39 39 39 39 38 37 36 36 36 37 37 37 37 38 38 38 39 40 41 43 45 46 46 47 46 46 46 46
18 19 20 21 22 22 23 23 23 22 21 22 22 21 20 22 22 22 23 25 25 25 25 27 28 27 27 27 26 26 27 28 28 28 28 28 29 28 29 29 30 31 32 32 32 32 32 32 32 32 33 33 34 35 35 36 37 39 40 42 43 43 44 44 44 43 43 43 44 44 44 45 45 46 46 47 49 50 50 50 49 47 47 46 45 45
18 19 19 19 19 20 20 22 23 23 22 22 22 21 21 24 26 26 24 24 26 26 24 24 25 26 26 27 28 28 29 29 29 30 30 30 30 29 29 29 29 30 30 30 31 31 32 32 32 32 32 33 33 34 34 35 35 36 37 39 41 43 44 45 46 47 47 47 46 46 46 46 46 46 47 48 48 49 49 48 48 47 46 45 45 45
16 18 19 19 18 18 17 17 19 21 21 21 21 22 23 25 26 26 26 26 28 28 26 24 23 22 22 23 25 27 29 30 30 30 31 31 31 31 31 31 31 31 31 30 30 31 31 31 31 32 32 32 32 32 33 33 34 35 36 37 38 39 41 42 43 44 45 45 45 44 44 44 44 44 44 44 45 45 46 46 46 47 47 47 47 48
17 18 19 19 19 20 20 18 17 19 21 23 23 23 23 23 23 23 24 25 26 28 29 28 24 22 22 23 25 26 28 29 29 30 30 31 31 32 33 33 32 32 31 31 30 30 30 30 30 30 30 30 31 31 31 31 32 33 34 35 36 37 38 39 40 41 42 42 43 43 44 44 45 45 45 46 46 47 47 48 48 49 49 50 50 51
18 19 20 20 20 21 22 22 21 21 21 23 24 23 22 22 23 23 24 24 24 26 28 28 27 26 27 29 30 29 29 29 30 31 31 31 32 32 33 33 33 32 32 31 31 31 31 32 32 32 32 32 32 33 33 34 34 35 36 36 37 38 38 39 40 41 42 43 43 44 45 46 47 47 48 49 50 51 52 52 53 54 55 55 55 56
16 17 19 20 22 22 23 24 25 25 24 23 24 24 23 23 24 25 25 26 26 26 27 28 28 29 30 31 32 33 33 33 33 33 33 33 33 33 33 33 34 34 34 34 34 35 35 35 35 35 35 36 36 37 38 38 38 39 39 39 40 41 41 42 43 44 45 45 46 47 48 49 50 50 51 52 53 54 55 56 57 58 59 59 60 60
12 14 15 18 20 22 23 24 26 27 26 26 25 26 25 25 25 25 26 26 27 28 28 29 29 30 31 32 32 33 33 34 34 34 34 34 34 34 35 35 35 35 35 36 36 36 37 37 37 38 38 39 40 40 40 41 41 42 43 43 44 45 45 46 46 47 47 48 48 49 49 50 50 51 52 53 53 54 55 56 57 58 59 59 60 61
Wind_Direction
252 252 249 241 238 243 247 248 244 240 238 238 242 247 244 238 233 232 234 234 235 236 236 238 240 241 239 236 237 239 241 244 245 245 244 244 248 255 263 267 263 252 244 243 242 246 251 255 251 242 323 342 316 264 255 251 255 257 259 260 257 252 249 250 254 257 258 257 257 258 259 261 264 263 260 256 249 240 229 222 222 222 217 212 211 211
252 252 245 234 234 239 242 245 244 241 239 237 240 246 246 242 235 233 236 236 237 239 238 240 242 242 240 237 237 240 241 244 247 248 249 250 252 258 263 263 258 248 242 241 239 243 250 251 246 259 305 321 306 275 255 247 249 252 254 253 251 249 246 247 249 252 252 253 254 257 258 260 261 261 259 254 242 230 223 222 223 222 218 216 216 217
251 250 239 230 234 237 238 242 243 241 239 236 239 244 245 244 237 234 237 236 238 241 240 240 242 242 240 238 239 242 244 246 248 250 252 254 255 257 259 257 252 244 239 238 237 244 249 247 250 271 299 303 291 284 276 260 253 252 253 249 248 247 243 243 245 246 248 253 256 257 258 259 258 257 254 244 231 222 222 224 221 216 216 217 218 220
249 245 233 228 232 233 236 239 241 241 240 237 239 243 243 243 239 235 236 235 238 243 240 237 239 241 242 240 240 243 245 246 248 250 251 252 252 252 251 248 242 236 234 234 235 242 245 247 260 281 291 289 279 282 285 276 265 258 253 250 248 247 244 243 244 245 248 254 256 255 253 254 254 250 242 234 225 221 222 222 217 214 214 216 218 221
244 237 228 228 231 233 234 237 240 241 240 237 239 242 241 241 241 235 233 234 238 242 240 236 238 241 242 240 239 242 245 245 246 248 248 248 247 245 243 240 236 234 234 235 236 239 242 249 263 276 279 273 269 279 288 287 277 264 257 254 252 250 247 246 246 247 250 253 255 253 249 247 245 237 228 226 224 224 226 222 216 212 212 212 214 214
237 230 227 228 232 234 235 238 241 242 239 236 238 240 239 239 240 235 230 232 234 234 236 239 240 240 241 242 242 242 242 241 242 243 244 243 241 239 237 234 232 233 234 237 241 241 241 247 257 264 264 259 266 280 288 289 282 270 263 258 254 252 250 250 251 251 252 257 259 255 248 242 235 226 221 223 225 227 226 220 213 210 210 209 209 207
232 227 228 229 231 234 235 238 241 242 239 235 236 238 237 238 239 236 231 228 225 223 231 241 243 243 245 244 239 235 234 233 234 235 235 234 231 229 227 226 228 231 233 237 242 239 237 242 250 254 251 254 271 282 285 285 280 272 269 264 259 256 254 255 256 256 260 263 262 257 248 239 231 225 223 224 225 224 218 211 209 209 208 207 206 206
231 228 229 230 232 234 235 238 239 238 234 233 237 237 236 236 237 236 231 224 218 219 229 239 245 246 236 223 218 220 222 221 222 225 227 226 225 224 224 226 230 231 232 240 243 239 237 240 244 243 247 262 276 281 281 279 274 270 271 271 266 258 255 254 252 255 260 259 255 250 241 233 229 227 227 227 224 218 209 206 207 206 205 205 206 207
226 227 227 227 230 232 233 236 234 231 230 233 236 234 232 233 233 233 230 219 215 221 228 235 245 236 205 196 203 209 213 216 218 220 224 225 226 228 229 232 235 233 234 241 244 243 239 239 239 243 256 269 275 276 274 270 266 264 266 268 262 254 252 249 244 246 251 252 248 242 237 232 231 229 228 226 220 211 206 205 203 203 204 206 207 207
226 225 223 224 227 230 231 233 233 230 228 231 232 230 230 231 231 230 226 215 215 223 226 231 237 217 194 193 201 205 209 214 215 218 223 226 226 228 231 235 239 238 239 240 240 240 238 238 243 251 261 267 270 270 265 260 259 257 258 260 257 252 251 248 246 247 250 249 242 239 238 235 232 229 225 221 214 206 205 205 203 203 205 206 206 206
229 227 225 225 225 228 230 231 232 230 228 230 232 231 233 236 236 232 223 213 215 222 224 226 225 210 202 205 206 209 212 213 213 215 218 221 223 226 231 235 239 241 241 238 235 236 238 241 248 254 259 263 265 262 256 254 255 254 256 256 253 253 251 247 245 248 251 248 242 240 238 235 234 228 220 214 208 204 205 207 207 207 208 206 205 204
230 230 230 228 226 228 229 230 231 229 229 230 232 234 236 239 239 234 225 216 216 220 220 222 219 210 210 215 213 214 217 217 217 214 214 218 220 224 228 231 235 237 236 233 231 232 236 244 250 252 256 261 260 253 246 247 249 251 253 251 246 247 249 247 244 248 252 248 241 238 234 231 229 222 213 210 210 209 209 210 211 212 212 208 205 205
231 231 231 228 226 227 228 229 230 230 230 229 230 231 231 233 235 233 228 221 219 218 215 218 219 211 212 216 215 215 216 220 221 218 221 223 220 223 226 229 232 230 229 228 226 225 230 241 250 254 256 257 253 245 240 242 245 246 247 246 242 238 240 241 242 248 251 243 235 232 231 231 226 219 219 224 224 221 218 216 215 216 217 215 212 215
230 229 229 227 226 227 228 230 230 229 227 225 225 226 226 229 232 233 230 225 221 217 212 216 220 216 213 214 214 214 215 220 223 225 230 229 228 231 236 242 241 232 224 218 216 225 239 245 251 254 253 251 246 241 237 237 239 239 242 243 240 236 232 231 235 244 247 241 235 234 238 242 238 234 237 238 233 227 224 221 219 218 221 221 221 226
224 224 224 224 224 225 226 226 227 227 225 223 223 224 227 231 234 234 232 227 222 218 214 215 221 221 217 214 213 214 216 221 226 234 241 242 242 242 248 257 246 226 213 207 212 233 247 247 251 251 247 243 240 238 234 233 233 235 241 243 242 239 232 227 230 236 240 238 235 240 248 251 247 243 239 235 231 226 222 220 218 218 222 225 228 234
223 220 217 217 219 221 222 222 225 226 225 224 225 225 228 233 236 236 234 228 223 220 217 217 222 224 222 218 218 218 219 225 232 240 247 254 256 253 256 257 231 213 213 217 224 235 239 240 245 242 236 232 232 231 228 228 230 233 239 242 244 241 233 228 232 235 237 238 238 245 251 249 248 244 238 233 227 223 221 219 219 221 224 229 235 241
223 218 214 214 215 218 221 222 225 227 226 225 225 226 226 229 233 233 232 232 228 224 222 221 222 225 225 224 224 224 225 230 235 240 247 259 265 261 257 248 225 220 232 239 236 235 233 233 233 231 227 224 224 225 226 227 228 231 239 243 242 237 231 234 241 241 238 237 235 234 231 235 242 242 238 236 231 228 226 224 224 226 229 234 239 244
217 212 212 214 214 216 219 221 224 226 228 227 224 223 225 225 227 228 229 232 233 232 230 227 226 228 230 231 232 232 233 236 240 244 251 259 264 263 257 248 240 241 249 251 247 240 234 227 225 227 228 225 223 224 229 232 232 235 242 244 238 231 233 239 239 236 231 230 231 225 221 225 234 239 240 240 238 236 234 233 233 234 235 239 243 247
213 207 209 213 214 216 219 220 222 225 226 224 219 218 221 223 225 229 230 231 235 238 238 235 232 233 236 238 240 241 243 246 250 253 256 259 260 259 256 250 247 248 251 254 251 244 237 229 225 227 229 232 233 233 237 242 243 247 251 250 246 246 251 249 244 241 234 230 230 226 224 225 228 235 244 246 246 245 243 242 241 241 241 242 243 246
213 206 207 213 214 216 219 220 222 222 220 219 217 215 217 220 222 227 231 233 236 239 241 240 237 237 239 242 244 247 251 255 259 262 263 263 262 260 261 256 248 245 249 253 248 240 236 232 229 230 230 235 237 237 241 247 250 253 255 255 258 262 263 257 250 249 244 234 232 233 233 230 227 231 238 245 249 248 247 247 246 245 244 243 243 243
213 208 207 212 215 216 218 219 219 218 215 217 219 218 220 222 223 224 227 231 234 237 241 242 240 239 240 243 246 251 256 259 263 265 264 262 259 260 263 258 250 250 253 252 244 239 237 235 234 233 227 228 235 237 242 251 255 256 254 253 255 258 260 257 251 251 252 250 249 246 240 236 236 235 234 237 242 243 242 243 243 242 242 244 246 245
215 211 208 210 213 215 218 219 217 216 217 219 222 223 223 224 226 227 229 231 233 236 239 241 243 244 245 247 250 252 255 257 259 259 257 254 251 253 256 253 253 259 260 252 243 240 239 237 238 237 226 226 236 241 247 258 264 264 261 258 254 251 254 255 251 253 258 258 256 251 244 244 244 239 236 239 240 240 240 238 237 238 240 244 244 240
220 215 210 210 213 216 217 217 217 217 219 221 222 223 225 225 226 229 232 234 237 238 240 242 245 247 248 250 251 250 250 251 251 250 249 248 248 251 255 254 253 256 257 253 242 236 235 234 237 242 236 233 239 243 251 259 263 266 267 264 258 251 246 245 244 249 257 259 255 251 248 247 243 239 241 243 241 242 243 242 242 242 242 243 241 238
224 219 214 213 214 217 219 218 218 219 220 221 222 223 226 227 227 229 232 235 238 239 240 240 242 244 247 249 248 246 245 245 246 247 248 249 251 254 257 256 252 248 250 251 241 233 233 234 235 239 239 240 243 244 249 255 260 263 263 259 254 248 243 240 243 251 258 258 257 256 253 247 243 243 244 244 241 241 243 247 249 249 248 248 252 259
226 223 219 217 217 218 220 220 219 220 221 222 222 224 227 229 230 231 232 234 236 238 239 240 241 243 245 246 244 242 242 242 243 245 248 251 253 254 256 257 255 251 250 249 240 233 236 239 236 235 237 242 246 248 252 254 256 258 257 254 253 252 249 246 252 261 264 263 259 257 252 246 244 244 243 243 243 241 242 248 251 250 250 255 262 267
227 226 222 221 221 221 223 223 223 223 225 227 227 228 229 232 233 233 235 236 237 238 240 241 243 245 246 246 245 243 242 242 245 247 249 250 250 252 259 265 269 262 251 245 242 238 237 236 233 235 240 244 247 251 254 253 252 255 257 257 258 259 254 250 257 266 267 262 255 250 245 242 241 242 241 242 243 240 241 246 247 247 250 255 258 259
227 227 224 224 226 227 227 227 226 226 228 230 232 233 234 235 236 237 238 239 240 240 242 243 244 245 245 245 246 246 245 246 248 250 251 250 251 257 266 273 280 274 251 239 240 239 235 235 238 242 244 245 248 250 251 252 253 255 257 255 255 256 252 250 258 263 259 254 250 247 246 242 239 239 239 239 240 240 241 242 240 241 245 248 249 253
228 228 226 226 228 230 231 231 230 229 230 232 234 235 237 237 238 238 239 240 241 241 243 244 246 246 245 245 247 248 249 251 253 253 254 254 255 261 267 268 271 274 259 241 238 237 238 244 246 243 240 241 244 247 249 252 253 252 252 250 251 253 252 253 257 256 252 252 251 251 252 247 240 238 238 237 237 237 241 241 235 233 239 243 243 248
231 230 229 229 231 233 234 236 235 235 235 236 237 237 238 238 239 239 240 241 243 243 244 245 246 246 246 247 248 249 250 253 256 257 259 259 259 261 264 262 258 260 259 248 243 245 245 241 238 237 238 241 243 244 247 250 252 251 249 248 249 250 251 251 251 248 249 253 254 252 253 252 248 242 236 234 237 239 236 232 229 229 234 238 237 243
239 235 233 233 234 235 237 238 239 238 239 240 240 240 241 241 240 240 240 241 243 245 247 248 249 250 250 249 249 249 251 253 257 261 263 264 262 260 260 256 247 245 247 246 248 252 244 235 236 243 245 244 243 243 246 250 253 252 249 247 247 247 247 246 245 244 247 250 250 249 247 251 256 249 235 231 240 243 232 225 230 235 235 232 234 243
247 240 238 239 240 240 240 242 242 243 243 242 241 240 240 241 242 242 242 242 244 246 247 249 251 253 254 253 252 253 254 256 256 258 260 260 258 254 253 251 243 240 244 246 247 246 238 235 242 248 248 246 244 244 246 247 249 248 246 245 244 245 244 243 242 241 240 241 241 241 240 242 248 245 231 229 237 239 232 230 234 234 230 229 235 242
244 240 238 238 240 240 241 242 242 243 244 244 243 242 241 239 240 242 243 244 246 247 248 247 249 251 254 256 257 258 258 258 256 255 255 254 251 249 251 253 250 248 252 252 248 242 238 243 250 250 247 245 244 244 244 244 244 244 243 243 244 245 245 243 241 238 237 237 237 235 234 233 231 229 226 228 232 233 233 235 233 226 223 227 233 239
237 234 231 231 234 235 235 236 238 238 241 243 244 246 245 240 238 240 244 246 246 248 248 248 248 251 252 253 255 258 260 261 259 257 255 252 249 249 252 256 253 250 253 253 247 244 245 249 250 246 241 241 243 244 243 241 241 241 242 243 244 245 245 244 242 240 239 237 235 233 231 229 227 227 228 231 231 231 233 233 228 226 228 230 233 240
230 228 228 227 230 231 229 230 234 235 237 240 243 245 246 242 240 241 245 247 246 246 248 248 246 247 249 250 253 257 261 262 259 256 253 249 246 245 248 254 253 249 250 248 242 241 244 243 239 235 235 238 239 240 240 239 239 241 243 244 244 245 245 245 245 245 243 241 238 238 237 236 234 233 234 236 235 233 232 229 227 231 236 235 236 243
225 224 224 219 218 224 226 229 233 234 234 237 240 242 243 244 244 246 250 252 249 246 246 246 247 248 251 253 255 257 260 260 256 251 249 247 245 244 247 256 258 251 247 244 239 236 233 230 229 230 232 234 235 235 236 238 240 242 244 245 244 243 243 243 245 246 246 244 242 242 242 241 241 240 240 241 239 236 234 232 233 237 240 240 243 248
224 222 222 214 206 209 209 208 215 222 225 230 235 239 242 244 246 248 252 255 253 247 244 245 248 252 253 253 253 254 256 256 252 249 248 247 244 244 246 252 252 244 238 238 243 240 231 225 228 231 232 234 235 234 233 235 237 239 240 241 242 241 240 239 241 242 244 245 245 245 245 245 245 245 245 245 243 240 239 239 239 240 242 244 249 253
237 228 227 223 215 209 202 197 195 194 201 211 215 220 227 233 237 237 237 242 246 245 245 245 248 250 248 247 248 249 249 248 245 244 244 242 239 239 239 237 235 235 238 244 251 247 234 226 229 235 237 237 237 236 235 235 235 235 236 237 240 241 240 239 238 238 239 242 245 246 247 247 248 248 248 248 246 245 244 245 245 245 246 249 253 256
254 251 248 245 242 240 235 227 218 210 211 215 209 205 206 207 214 216 216 223 229 230 230 230 234 239 239 238 241 243 242 241 241 241 243 243 241 240 240 235 231 233 239 242 241 238 233 231 233 234 235 235 235 236 236 235 236 237 238 240 241 241 241 240 238 237 237 240 244 247 248 249 249 249 248 248 247 246 246 248 250 252 253 255 257 259
253 257 257 256 257 259 260 258 253 248 246 245 242 241 237 226 218 215 215 219 221 220 220 218 218 223 226 224 223 224 223 226 230 232 233 235 235 234 234 231 227 228 229 227 226 227 228 230 231 230 231 234 234 234 235 234 234 236 239 241 241 241 241 240 240 239 240 243 247 249 250 250 249 249 250 250 249 249 249 250 252 255 257 259 260 262
243 246 251 253 254 257 261 266 268 267 266 263 260 258 256 252 247 237 230 228 226 226 228 224 220 220 222 220 217 217 215 213 215 217 215 212 213 214 215 218 220 222 223 222 220 219 219 221 223 225 228 231 233 234 235 232 230 233 239 241 241 242 243 243 243 243 244 247 250 251 252 252 252 253 253 253 253 252 253 254 255 258 260 262 264 265
242 243 246 249 251 252 255 259 262 266 269 269 268 266 261 260 258 251 245 241 234 230 231 231 229 227 227 227 228 229 231 229 229 230 226 219 217 217 218 223 229 234 237 236 233 230 229 228 229 230 232 235 238 240 241 241 240 241 245 248 248 248 247 245 245 247 248 249 251 252 253 254 255 256 256 256 256 256 256 257 258 259 261 263 264 265
243 244 245 246 246 248 249 249 252 256 258 260 263 263 259 258 256 252 249 246 238 232 229 228 230 231 230 231 231 232 235 236 237 238 236 233 232 232 234 236 240 244 246 245 245 245 245 245 246 246 247 247 249 250 250 251 251 250 250 252 254 255 252 247 245 247 248 249 251 252 253 254 254 255 255 255 255 255 255 256 258 261 264 265 265 265
244 245 246 246 245 245 246 246 246 247 248 250 253 252 251 252 249 243 243 244 240 236 232 229 232 235 235 235 235 235 236 238 239 241 241 240 239 240 241 243 245 247 249 249 249 249 249 249 250 250 250 250 250 251 251 252 252 251 249 248 247 249 249 247 247 248 249 249 250 250 251 251 250 251 251 251 253 255 257 260 263 266 268 268 268 267
244 245 244 245 245 245 245 246 246 245 245 246 247 244 243 247 245 237 238 242 241 238 236 234 234 237 239 240 240 240 240 241 241 242 244 245 244 244 244 245 246 248 250 252 253 253 253 252 251 250 251 251 250 251 251 251 252 252 252 250 249 249 250 251 252 254 255 255 255 255 254 253 252 253 254 255 257 261 264 267 269 270 270 270 269 269
241 241 241 242 244 245 245 244 243 243 242 243 244 242 239 240 240 236 235 238 238 237 237 238 238 238 241 243 244 244 244 242 242 241 241 243 244 244 245 246 246 247 249 250 252 254 255 256 255 254 253 253 254 255 254 254 253 253 253 253 253 254 254 256 257 259 260 262 262 263 262 261 261 261 261 261 263 264 267 269 270 270 270 270 269 268
238 239 239 238 238 241 244 244 242 240 239 239 240 240 238 237 238 236 233 231 232 231 232 234 234 234 237 240 242 244 244 243 242 242 241 242 243 244 246 246 246 246 247 247 248 250 252 253 253 252 252 252 254 255 255 256 256 256 255 255 255 255 256 257 259 260 262 263 264 265 265 265 265 265 265 265 266 267 268 270 271 271 271 271 270 269
229 234 236 236 234 234 235 237 237 235 236 235 232 229 228 228 230 233 231 229 229 228 226 227 227 225 228 231 233 235 239 241 241 242 244 245 247 248 248 248 248 248 249 248 248 248 249 249 249 249 250 251 251 251 251 253 254 256 257 257 258 258 258 259 260 261 262 264 265 266 267 267 268 268 267 267 267 268 268 268 269 269 269 269 268 268
226 228 230 231 230 229 228 228 226 222 221 220 216 213 213 214 217 222 225 226 227 227 228 230 227 222 224 228 228 228 232 235 238 240 243 245 246 248 249 250 250 251 252 252 252 252 252 252 252 253 253 253 253 253 253 253 254 256 257 258 258 260 261 262 263 264 265 266 267 268 269 270 270 270 271 271 270 270 270 269 269 268 268 267 267 266
234 234 232 230 229 228 228 229 229 225 220 216 214 213 213 213 213 214 216 219 221 224 228 230 228 224 224 229 231 231 231 233 235 238 240 242 245 248 251 252 253 254 254 255 256 257 258 258 259 260 260 260 260 260 261 262 263 264 264 264 264 265 265 265 266 266 267 267 268 268 269 270 270 270 271 271 271 272 272 272 271 271 270 269 269 268
236 236 235 234 233 233 232 232 233 235 234 231 228 226 224 222 220 219 220 220 221 222 225 227 228 228 231 234 236 236 236 236 236 238 241 243 245 247 249 250 252 253 255 256 257 258 259 260 261 262 262 263 264 265 266 267 268 269 269 269 269 269 269 269 268 268 268 268 268 269 269 269 269 269 269 269 269 269 270 270 270 270 270 270 269 269
236 236 236 236 235 236 237 237 237 238 240 241 240 238 236 234 231 228 227 226 227 227 227 228 228 230 233 236 238 240 241 242 241 241 243 245 247 248 249 251 252 253 255 256 256 257 257 258 260 261 263 264 265 266 267 269 269 270 271 271 272 272 271 271 270 270 270 269 269 269 269 268 268 268 268 267 267 268 268 268 268 268 268 268 269 269
Height
5712 5713 5715 5718 5721 5721 5721 5722 5723 5724 5725 5726 5727 5728 5730 5732 5734 5734 5734 5733 5733 5733 5736 5737 5738 5740 5743 5745 5746 5747 5748 5751 5754 5757 5760 5763 5765 5767 5768 5769 5771 5772 5772 5772 5773 5774 5774 5775 5776 5776 5777 5778 5779 5780 5781 5781 5782 5782 5782 5783 5783 5783 5783 5783 5784 5784 5784 5785 5785 5785 5785 5786 5786 5786 5786 5786 5786 5787 5787 5788 5788 5789 5791 5792 5793 5793
5709 5710 5714 5717 5718 5718 5719 5719 5720 5721 5723 5724 5725 5726 5728 5730 5732 5732 5731 5730 5730 5731 5734 5735 5736 5737 5739 5741 5742 5743 5745 5748 5751 5754 5757 5760 5763 5765 5766 5767 5768 5770 5770 5770 5772 5772 5773 5774 5774 5775 5775 5776 5777 5778 5779 5779 5779 5780 5780 5780 5781 5781 5781 5781 5781 5782 5782 5782 5782 5783 5784 5784 5784 5784 5785 5785 5785 5786 5786 5787 5788 5788 5789 5790 5791 5792
5706 5709 5713 5715 5715 5716 5716 5717 5718 5719 5720 5722 5723 5724 5726 5728 5729 5729 5729 5728 5727 5729 5732 5733 5733 5733 5735 5739 5740 5740 5743 5746 5749 5751 5754 5757 5760 5762 5763 5764 5766 5767 5768 5769 5770 5770 5771 5772 5772 5773 5774 5774 5775 5776 5776 5777 5777 5777 5777 5777 5778 5778 5778 5778 5779 5779 5779 5780 5780 5781 5782 5782 5782 5783 5783 5784 5784 5784 5785 5785 5787 5787 5788 5789 5790 5791
5703 5707 5711 5711 5711 5713 5714 5714 5716 5717 5718 5720 5721 5723 5725 5726 5726 5727 5726 5725 5725 5727 5730 5730 5730 5731 5733 5736 5738 5738 5740 5743 5746 5748 5751 5753 5756 5758 5760 5761 5763 5764 5765 5767 5767 5768 5769 5770 5770 5771 5771 5772 5773 5773 5774 5774 5774 5774 5774 5775 5775 5776 5776 5776 5776 5776 5777 5777 5778 5779 5779 5780 5781 5781 5781 5782 5782 5783 5783 5784 5785 5786 5787 5787 5788 5789
5702 5705 5707 5707 5708 5710 5711 5712 5714 5715 5717 5718 5719 5721 5723 5723 5724 5724 5724 5722 5723 5726 5728 5727 5727 5729 5731 5733 5735 5736 5737 5740 5742 5745 5748 5750 5752 5754 5756 5758 5760 5761 5763 5764 5765 5766 5767 5767 5768 5769 5769 5770 5770 5771 5771 5771 5771 5771 5771 5772 5773 5773 5773 5773 5773 5773 5774 5775 5775 5776 5777 5778 5778 5779 5779 5780 5780 5781 5782 5783 5784 5785 5785 5786 5787 5788
5700 5702 5703 5704 5706 5708 5709 5711 5712 5713 5715 5716 5718 5719 5720 5720 5721 5721 5721 5721 5722 5725 5725 5725 5725 5727 5729 5730 5732 5733 5734 5736 5739 5742 5745 5747 5749 5751 5753 5756 5758 5759 5760 5761 5762 5764 5764 5765 5766 5766 5767 5767 5768 5768 5768 5769 5769 5769 5769 5770 5770 5771 5771 5771 5771 5771 5772 5773 5774 5775 5775 5776 5776 5776 5777 5778 5778 5779 5780 5781 5782 5783 5784 5785 5785 5786
5698 5700 5700 5702 5704 5706 5707 5709 5710 5712 5713 5714 5716 5716 5717 5717 5718 5719 5719 5719 5721 5723 5723 5723 5723 5725 5727 5728 5729 5731 5732 5734 5737 5740 5742 5744 5746 5748 5751 5753 5755 5757 5758 5759 5760 5761 5762 5763 5764 5764 5765 5765 5765 5765 5766 5766 5766 5766 5767 5767 5768 5769 5769 5769 5769 5770 5771 5773 5773 5773 5773 5773 5773 5774 5775 5776 5777 5778 5779 5780 5781 5782 5782 5783 5783 5784
5696 5697 5698 5700 5702 5703 5705 5707 5708 5709 5711 5712 5713 5713 5714 5714 5715 5715 5716 5717 5719 5720 5721 5722 5722 5724 5725 5726 5728 5729 5731 5733 5735 5738 5740 5742 5744 5747 5749 5751 5753 5754 5756 5757 5758 5759 5760 5760 5761 5762 5762 5762 5762 5763 5764 5764 5764 5764 5765 5765 5766 5766 5766 5766 5767 5768 5769 5770 5770 5770 5771 5771 5772 5773 5774 5774 5776 5777 5777 5778 5779 5780 5781 5781 5782 5783
5693 5693 5695 5697 5698 5700 5703 5704 5705 5706 5708 5709 5709 5709 5710 5711 5711 5712 5714 5716 5718 5719 5720 5721 5722 5723 5725 5726 5727 5729 5731 5733 5735 5737 5739 5741 5743 5745 5747 5749 5751 5752 5753 5754 5756 5756 5757 5758 5758 5759 5759 5759 5760 5760 5761 5762 5762 5762 5763 5763 5764 5764 5764 5764 5764 5764 5765 5766 5767 5768 5769 5770 5771 5772 5772 5773 5774 5775 5776 5777 5778 5779 5779 5780 5781 5782
5689 5690 5692 5693 5696 5699 5701 5701 5702 5704 5706 5705 5705 5707 5707 5708 5709 5710 5712 5714 5716 5717 5719 5720 5721 5722 5724 5725 5727 5728 5730 5732 5734 5736 5738 5740 5742 5744 5745 5747 5748 5749 5750 5752 5753 5754 5754 5755 5755 5756 5756 5756 5757 5758 5759 5760 5760 5760 5760 5761 5761 5761 5761 5762 5762 5762 5762 5764 5765 5765 5766 5768 5769 5769 5770 5771 5772 5774 5775 5776 5777 5777 5778 5778 5779 5780
5686 5688 5689 5691 5695 5697 5698 5699 5701 5703 5703 5702 5703 5705 5706 5707 5708 5709 5710 5712 5713 5715 5717 5719 5719 5721 5722 5724 5725 5727 5729 5731 5733 5736 5737 5739 5741 5742 5744 5745 5746 5746 5747 5749 5750 5751 5752 5752 5752 5753 5753 5754 5755 5755 5756 5757 5757 5757 5758 5758 5759 5759 5759 5759 5760 5760 5760 5761 5761 5762 5764 5765 5766 5767 5768 5769 5771 5772 5773 5775 5775 5776 5776 5777 5778 5779
5684 5686 5688 5692 5694 5695 5695 5697 5699 5700 5700 5701 5703 5704 5705 5705 5706 5707 5708 5709 5710 5713 5716 5717 5717 5719 5721 5722 5724 5726 5728 5730 5732 5734 5736 5738 5739 5740 5741 5741 5742 5742 5743 5744 5746 5747 5748 5749 5750 5750 5751 5751 5752 5753 5754 5754 5754 5754 5755 5756 5756 5757 5757 5757 5758 5758 5758 5759 5759 5760 5762 5764 5765 5766 5767 5768 5770 5771 5772 5773 5774 5775 5776 5777 5778 5779
5682 5685 5687 5690 5691 5692 5694 5695 5697 5698 5699 5700 5701 5702 5703 5703 5704 5705 5706 5707 5709 5712 5714 5715 5715 5717 5719 5720 5722 5725 5727 5729 5731 5733 5735 5736 5737 5737 5737 5736 5735 5735 5736 5738 5741 5742 5744 5746 5747 5748 5748 5749 5749 5750 5751 5752 5752 5752 5753 5753 5754 5755 5755 5756 5757 5757 5757 5758 5759 5760 5762 5763 5764 5766 5767 5768 5769 5770 5771 5772 5773 5774 5775 5776 5778 5779
5680 5683 5685 5688 5689 5691 5692 5694 5695 5697 5698 5699 5699 5700 5701 5701 5701 5703 5704 5706 5708 5710 5713 5713 5714 5715 5717 5719 5721 5724 5726 5728 5729 5731 5733 5734 5735 5734 5734 5733 5733 5734 5735 5738 5739 5740 5741 5744 5745 5746 5746 5747 5747 5747 5748 5749 5749 5750 5750 5751 5752 5752 5753 5753 5754 5755 5756 5758 5759 5761 5762 5763 5764 5765 5767 5767 5768 5769 5770 5771 5772 5773 5774 5775 5777 5778
5678 5680 5683 5686 5687 5689 5691 5692 5694 5694 5696 5697 5697 5698 5699 5699 5700 5702 5703 5705 5707 5709 5711 5712 5712 5713 5715 5718 5720 5723 5725 5726 5728 5730 5731 5732 5732 5732 5732 5732 5734 5736 5737 5737 5738 5739 5740 5741 5742 5743 5743 5744 5744 5744 5745 5746 5747 5748 5748 5749 5749 5749 5749 5751 5752 5754 5756 5758 5759 5761 5762 5763 5764 5765 5766 5766 5766 5767 5768 5770 5771 5772 5772 5774 5775 5776
5676 5678 5681 5684 5685 5687 5689 5690 5691 5692 5693 5694 5695 5696 5697 5698 5699 5700 5702 5703 5705 5706 5708 5710 5710 5712 5714 5717 5719 5721 5724 5725 5727 5728 5729 5729 5730 5730 5731 5731 5733 5735 5736 5736 5737 5737 5737 5738 5739 5739 5740 5741 5741 5742 5742 5743 5745 5746 5746 5745 5746 5746 5747 5749 5752 5754 5756 5758 5759 5760 5761 5762 5763 5764 5764 5765 5765 5766 5767 5768 5769 5770 5771 5772 5773 5774
5675 5677 5679 5681 5683 5685 5686 5688 5689 5690 5691 5692 5693 5695 5696 5697 5698 5699 5700 5702 5703 5704 5706 5707 5709 5710 5712 5715 5717 5720 5722 5724 5725 5726 5727 5728 5728 5728 5729 5730 5731 5733 5735 5736 5736 5735 5734 5734 5735 5736 5737 5738 5738 5739 5740 5741 5742 5743 5743 5742 5744 5745 5747 5750 5753 5755 5756 5756 5757 5758 5758 5759 5760 5762 5763 5763 5764 5765 5766 5767 5768 5769 5770 5771 5772 5772
5673 5675 5677 5679 5681 5682 5684 5685 5687 5688 5689 5690 5692 5693 5694 5695 5696 5697 5699 5700 5701 5703 5704 5706 5707 5709 5710 5712 5715 5718 5720 5721 5723 5724 5725 5725 5725 5726 5726 5727 5729 5731 5733 5734 5734 5733 5731 5731 5732 5733 5735 5736 5736 5737 5738 5740 5741 5741 5741 5742 5744 5745 5747 5750 5752 5752 5752 5753 5753 5754 5755 5757 5758 5760 5761 5762 5763 5764 5765 5766 5767 5768 5769 5770 5770 5771
5670 5673 5674 5676 5678 5680 5681 5683 5685 5686 5687 5689 5690 5691 5692 5693 5694 5696 5697 5698 5700 5701 5702 5704 5706 5707 5709 5711 5713 5715 5717 5719 5720 5721 5722 5722 5722 5722 5723 5724 5726 5727 5729 5730 5731 5731 5729 5727 5728 5730 5734 5735 5736 5737 5738 5739 5739 5739 5740 5742 5744 5746 5747 5750 5749 5749 5749 5750 5751 5752 5753 5755 5756 5758 5760 5762 5763 5763 5764 5765 5766 5767 5768 5768 5769 5770
5668 5670 5672 5673 5675 5677 5679 5681 5683 5684 5685 5686 5688 5688 5690 5691 5692 5694 5695 5697 5698 5699 5700 5702 5703 5705 5707 5709 5711 5713 5714 5716 5717 5719 5719 5720 5720 5720 5721 5722 5723 5723 5725 5727 5728 5727 5725 5724 5726 5729 5733 5735 5735 5735 5736 5736 5737 5738 5739 5741 5743 5745 5746 5747 5748 5747 5748 5750 5751 5752 5753 5753 5755 5757 5759 5760 5761 5762 5763 5764 5765 5766 5766 5767 5767 5768
5665 5668 5669 5671 5672 5674 5676 5678 5680 5682 5683 5684 5685 5687 5688 5689 5691 5692 5693 5694 5695 5697 5698 5699 5701 5703 5705 5706 5708 5710 5712 5714 5715 5716 5717 5717 5717 5719 5720 5721 5721 5722 5723 5724 5723 5722 5722 5723 5726 5728 5731 5732 5732 5733 5734 5734 5735 5736 5736 5737 5740 5741 5742 5745 5746 5746 5747 5749 5750 5751 5752 5752 5754 5755 5756 5758 5759 5760 5761 5762 5763 5764 5765 5765 5766 5766
5662 5665 5667 5668 5669 5671 5673 5675 5677 5679 5681 5682 5683 5685 5686 5688 5689 5690 5691 5692 5693 5695 5696 5697 5699 5701 5703 5704 5706 5708 5710 5711 5712 5713 5714 5714 5715 5717 5718 5719 5720 5721 5720 5719 5719 5719 5721 5723 5724 5726 5728 5729 5730 5731 5732 5733 5733 5734 5734 5735 5736 5737 5739 5742 5744 5745 5746 5747 5748 5749 5750 5750 5751 5752 5754 5755 5756 5757 5758 5759 5760 5761 5762 5763 5764 5764
5660 5663 5665 5665 5666 5668 5670 5672 5675 5677 5678 5679 5681 5682 5684 5685 5687 5688 5690 5691 5692 5693 5694 5695 5697 5699 5701 5702 5704 5706 5707 5708 5709 5710 5711 5711 5713 5715 5716 5717 5718 5718 5718 5717 5717 5717 5719 5721 5723 5724 5726 5728 5729 5729 5730 5731 5731 5732 5732 5732 5733 5734 5736 5739 5741 5742 5743 5744 5745 5746 5747 5748 5748 5750 5751 5752 5753 5755 5756 5757 5758 5759 5760 5761 5761 5762
5657 5660 5662 5663 5664 5666 5667 5669 5672 5674 5675 5677 5678 5680 5681 5683 5684 5686 5688 5689 5690 5691 5692 5694 5695 5697 5699 5701 5702 5704 5705 5706 5707 5707 5708 5709 5710 5712 5714 5714 5715 5715 5715 5715 5716 5716 5717 5719 5721 5723 5724 5725 5726 5727 5728 5729 5729 5729 5728 5728 5729 5730 5733 5735 5738 5739 5740 5740 5741 5743 5744 5745 5746 5747 5749 5750 5751 5752 5754 5754 5755 5756 5757 5758 5759 5760
5654 5657 5659 5661 5662 5663 5664 5666 5668 5671 5672 5674 5676 5677 5679 5680 5682 5684 5685 5686 5687 5689 5690 5692 5693 5695 5698 5699 5700 5702 5703 5703 5704 5705 5706 5707 5708 5710 5711 5711 5712 5712 5713 5713 5714 5715 5716 5717 5719 5720 5722 5723 5724 5725 5726 5727 5727 5726 5724 5725 5727 5729 5731 5733 5735 5736 5737 5738 5739 5740 5741 5742 5743 5745 5746 5747 5749 5750 5751 5752 5753 5754 5755 5756 5756 5757
5652 5654 5656 5658 5659 5660 5662 5664 5666 5669 5670 5672 5673 5675 5676 5678 5679 5681 5682 5683 5685 5686 5688 5690 5691 5694 5695 5697 5698 5699 5700 5701 5702 5704 5705 5706 5707 5708 5708 5708 5709 5709 5709 5710 5711 5712 5714 5715 5717 5718 5719 5720 5721 5722 5723 5724 5724 5724 5723 5725 5727 5729 5730 5732 5733 5733 5734 5735 5736 5737 5738 5739 5741 5743 5744 5745 5746 5747 5749 5750 5751 5751 5753 5753 5754 5754
5649 5651 5653 5655 5656 5658 5660 5662 5664 5666 5667 5669 5670 5672 5674 5675 5677 5678 5680 5681 5683 5684 5686 5687 5689 5691 5693 5694 5696 5697 5698 5699 5701 5702 5703 5704 5705 5705 5705 5706 5706 5706 5706 5707 5709 5711 5712 5713 5714 5715 5717 5718 5719 5720 5720 5720 5721 5722 5723 5724 5725 5726 5728 5729 5730 5731 5731 5732 5733 5735 5736 5737 5738 5739 5740 5742 5744 5745 5747 5748 5749 5749 5750 5750 5751 5752
5646 5648 5650 5652 5654 5656 5657 5659 5661 5663 5664 5666 5667 5669 5671 5672 5674 5675 5677 5678 5680 5681 5683 5685 5687 5689 5690 5692 5693 5695 5696 5697 5698 5699 5700 5701 5702 5702 5703 5704 5705 5705 5705 5706 5708 5710 5710 5711 5712 5713 5714 5715 5716 5717 5718 5718 5719 5720 5721 5721 5723 5724 5725 5727 5728 5729 5729 5730 5731 5732 5734 5735 5736 5736 5737 5739 5741 5743 5745 5746 5746 5746 5747 5748 5748 5749
5643 5645 5647 5649 5651 5653 5654 5656 5658 5660 5661 5663 5664 5666 5668 5669 5671 5673 5674 5675 5677 5678 5680 5682 5684 5686 5687 5689 5691 5692 5694 5695 5695 5696 5697 5698 5699 5700 5700 5701 5702 5703 5704 5706 5707 5708 5708 5709 5710 5711 5712 5713 5714 5715 5715 5716 5717 5718 5718 5719 5720 5721 5722 5724 5725 5726 5727 5728 5729 5730 5731 5732 5732 5733 5734 5736 5738 5740 5742 5742 5743 5743 5744 5745 5746 5746
5641 5642 5644 5647 5648 5650 5651 5653 5655 5656 5658 5659 5661 5663 5664 5666 5667 5669 5671 5672 5673 5675 5677 5679 5680 5682 5684 5686 5688 5689 5691 5692 5694 5694 5695 5696 5697 5698 5698 5699 5699 5701 5702 5704 5705 5705 5706 5707 5708 5709 5710 5711 5711 5712 5713 5714 5715 5715 5716 5717 5717 5718 5720 5721 5722 5723 5724 5726 5726 5727 5728 5729 5730 5730 5731 5734 5735 5736 5738 5739 5740 5740 5741 5742 5743 5743
5638 5640 5642 5643 5645 5646 5648 5650 5651 5653 5654 5655 5657 5659 5660 5662 5663 5665 5667 5669 5670 5672 5674 5676 5678 5679 5681 5683 5684 5686 5688 5689 5691 5692 5693 5694 5694 5695 5696 5696 5698 5699 5700 5701 5702 5703 5704 5705 5706 5707 5707 5708 5709 5710 5711 5712 5713 5713 5713 5714 5715 5716 5717 5718 5719 5720 5722 5723 5724 5724 5726 5727 5728 5728 5730 5732 5733 5733 5734 5736 5737 5738 5738 5739 5740 5741
5636 5637 5639 5639 5641 5642 5644 5646 5647 5649 5650 5651 5652 5654 5656 5657 5659 5661 5663 5665 5667 5668 5670 5672 5674 5676 5678 5679 5681 5682 5684 5685 5687 5689 5691 5692 5692 5692 5693 5694 5696 5697 5698 5699 5700 5701 5701 5702 5703 5704 5705 5706 5707 5708 5709 5710 5710 5711 5711 5712 5713 5714 5715 5716 5717 5718 5719 5721 5721 5722 5724 5725 5726 5726 5728 5729 5730 5731 5732 5733 5735 5735 5736 5736 5737 5738
5633 5635 5636 5636 5637 5638 5640 5642 5643 5645 5646 5647 5649 5650 5652 5653 5655 5657 5659 5661 5663 5665 5666 5669 5671 5673 5674 5676 5677 5678 5680 5681 5683 5685 5687 5689 5689 5690 5691 5692 5693 5694 5695 5696 5697 5698 5698 5699 5700 5700 5701 5703 5704 5705 5706 5707 5708 5709 5710 5711 5712 5712 5713 5714 5715 5716 5717 5718 5719 5720 5722 5723 5724 5725 5726 5727 5728 5729 5730 5732 5732 5733 5733 5734 5735 5736
5630 5632 5632 5633 5634 5635 5636 5638 5639 5641 5643 5644 5645 5647 5648 5650 5652 5654 5655 5657 5659 5661 5662 5665 5667 5669 5670 5672 5673 5675 5676 5677 5679 5681 5683 5685 5686 5687 5688 5689 5690 5691 5692 5693 5693 5694 5696 5696 5697 5698 5699 5700 5701 5702 5703 5704 5706 5707 5708 5709 5710 5710 5711 5712 5713 5714 5715 5716 5717 5719 5720 5721 5722 5723 5724 5725 5726 5727 5729 5729 5730 5730 5731 5732 5733 5734
5627 5628 5628 5630 5631 5632 5633 5636 5637 5638 5639 5641 5642 5643 5644 5646 5648 5650 5651 5652 5654 5656 5658 5660 5662 5665 5667 5669 5670 5672 5673 5674 5675 5677 5679 5681 5683 5684 5685 5686 5687 5688 5689 5690 5690 5691 5693 5694 5695 5696 5697 5697 5698 5699 5700 5701 5702 5704 5705 5706 5707 5708 5709 5710 5711 5712 5713 5714 5715 5717 5718 5719 5720 5721 5722 5723 5724 5726 5726 5727 5727 5727 5728 5729 5730 5731
5624 5625 5626 5627 5628 5629 5631 5633 5634 5634 5636 5638 5639 5640 5642 5643 5645 5646 5647 5648 5650 5652 5654 5657 5659 5661 5664 5666 5667 5668 5670 5671 5672 5674 5675 5677 5679 5680 5682 5684 5684 5684 5685 5687 5688 5689 5690 5691 5692 5694 5694 5695 5696 5697 5697 5698 5699 5700 5702 5703 5704 5705 5706 5707 5708 5709 5710 5711 5713 5714 5715 5717 5718 5719 5720 5721 5722 5723 5724 5724 5724 5725 5726 5726 5727 5728
5622 5623 5624 5624 5625 5627 5628 5630 5631 5632 5634 5635 5637 5638 5639 5640 5642 5643 5645 5646 5647 5649 5651 5654 5656 5658 5660 5662 5664 5665 5667 5667 5669 5670 5671 5672 5674 5676 5678 5681 5682 5682 5682 5684 5686 5687 5687 5688 5689 5691 5691 5692 5693 5694 5695 5696 5697 5697 5698 5700 5701 5702 5703 5704 5705 5707 5708 5709 5710 5711 5712 5714 5715 5716 5717 5718 5719 5719 5720 5721 5721 5722 5723 5723 5724 5724
5620 5621 5622 5623 5624 5625 5626 5627 5629 5630 5632 5633 5635 5636 5637 5638 5639 5641 5642 5644 5645 5647 5649 5651 5653 5654 5656 5659 5660 5662 5663 5663 5664 5665 5667 5668 5670 5672 5674 5676 5678 5680 5681 5681 5682 5683 5684 5685 5686 5687 5688 5688 5690 5691 5692 5693 5695 5696 5696 5697 5698 5699 5700 5701 5702 5704 5705 5706 5707 5708 5709 5710 5711 5712 5713 5714 5715 5716 5716 5717 5718 5718 5719 5719 5720 5720
5619 5619 5620 5621 5622 5622 5623 5624 5626 5627 5629 5631 5633 5635 5636 5637 5638 5639 5640 5642 5644 5645 5646 5648 5650 5651 5653 5655 5657 5658 5659 5660 5661 5662 5663 5665 5667 5668 5670 5672 5674 5676 5677 5677 5677 5678 5680 5681 5682 5683 5684 5685 5686 5687 5689 5690 5692 5693 5694 5694 5694 5695 5696 5698 5699 5700 5702 5703 5704 5704 5705 5706 5707 5708 5709 5710 5711 5711 5712 5713 5713 5714 5714 5715 5715 5716
5616 5616 5616 5618 5619 5620 5621 5622 5623 5625 5627 5629 5631 5633 5634 5636 5637 5638 5639 5640 5642 5643 5644 5645 5646 5648 5650 5651 5653 5654 5656 5657 5659 5660 5661 5663 5664 5665 5666 5668 5670 5672 5673 5673 5673 5675 5676 5677 5678 5679 5681 5682 5683 5684 5685 5687 5689 5690 5690 5690 5690 5691 5693 5694 5696 5697 5698 5699 5700 5700 5701 5702 5703 5704 5705 5705 5706 5707 5708 5708 5708 5709 5709 5710 5710 5711
5611 5612 5613 5615 5617 5618 5620 5621 5621 5622 5624 5626 5628 5630 5632 5634 5635 5637 5638 5639 5640 5641 5642 5642 5644 5645 5646 5648 5649 5651 5653 5654 5656 5657 5659 5660 5661 5662 5664 5665 5666 5667 5668 5668 5670 5672 5674 5675 5676 5677 5678 5679 5680 5681 5683 5685 5686 5687 5687 5687 5687 5688 5690 5691 5692 5693 5694 5695 5696 5696 5697 5697 5698 5699 5700 5701 5702 5703 5703 5703 5704 5704 5704 5705 5705 5706
5607 5608 5610 5612 5614 5615 5617 5618 5619 5620 5622 5623 5625 5627 5629 5631 5633 5634 5635 5637 5638 5639 5639 5640 5641 5642 5643 5645 5646 5648 5649 5651 5652 5653 5655 5656 5658 5659 5660 5661 5662 5662 5663 5665 5666 5668 5670 5672 5673 5674 5676 5677 5678 5679 5680 5681 5683 5684 5684 5685 5685 5686 5687 5688 5689 5690 5691 5691 5692 5692 5693 5693 5694 5695 5696 5696 5697 5698 5698 5699 5699 5699 5699 5699 5700 5701
5604 5605 5607 5608 5610 5612 5613 5615 5616 5618 5620 5621 5623 5625 5627 5628 5630 5632 5633 5634 5635 5636 5637 5637 5638 5639 5641 5642 5644 5645 5646 5647 5649 5650 5651 5652 5654 5655 5656 5657 5658 5659 5660 5661 5663 5665 5666 5668 5670 5671 5672 5674 5674 5675 5676 5677 5678 5679 5681 5682 5682 5683 5684 5684 5685 5686 5687 5688 5688 5689 5689 5690 5690 5691 5692 5692 5693 5693 5693 5694 5694 5694 5694 5694 5694 5695
5602 5603 5604 5605 5607 5609 5610 5612 5614 5615 5617 5619 5620 5622 5624 5625 5626 5628 5629 5630 5632 5633 5634 5635 5636 5637 5638 5640 5641 5643 5643 5644 5645 5646 5647 5648 5650 5651 5652 5653 5654 5656 5657 5658 5659 5660 5662 5664 5666 5667 5669 5670 5671 5671 5672 5673 5674 5675 5676 5677 5678 5679 5680 5680 5681 5682 5682 5683 5683 5684 5685 5685 5686 5686 5687 5687 5687 5688 5688 5688 5688 5688 5688 5688 5688 5688
5599 5600 5601 5603 5605 5606 5608 5609 5611 5613 5614 5616 5617 5619 5621 5622 5623 5624 5626 5627 5628 5630 5630 5631 5632 5634 5635 5637 5638 5639 5640 5640 5641 5642 5643 5644 5646 5647 5648 5650 5651 5652 5654 5655 5656 5657 5658 5660 5661 5663 5664 5665 5666 5667 5668 5669 5669 5670 5671 5672 5672 5673 5674 5675 5676 5676 5677 5677 5677 5678 5679 5679 5680 5680 5680 5680 5681 5681 5681 5681 5681 5681 5680 5681 5681 5681
5597 5598 5600 5601 5603 5604 5605 5607 5609 5610 5612 5613 5614 5616 5618 5619 5620 5621 5622 5624 5625 5626 5627 5628 5629 5631 5632 5633 5634 5635 5636 5637 5637 5638 5639 5641 5642 5643 5645 5646 5647 5649 5650 5651 5653 5654 5655 5656 5657 5658 5659 5660 5661 5662 5663 5663 5664 5665 5666 5666 5667 5668 5668 5669 5669 5670 5670 5671 5671 5671 5672 5672 5673 5673 5673 5674 5674 5674 5674 5674 5673 5673 5673 5673 5673 5673
5595 5596 5598 5600 5601 5602 5604 5605 5606 5608 5609 5611 5612 5613 5615 5616 5617 5617 5619 5620 5621 5623 5624 5626 5627 5628 5629 5629 5630 5631 5632 5633 5634 5635 5636 5637 5638 5640 5641 5642 5643 5645 5646 5648 5649 5650 5652 5653 5653 5654 5655 5656 5657 5658 5658 5659 5660 5660 5661 5661 5662 5662 5662 5663 5663 5663 5663 5664 5665 5665 5666 5666 5666 5667 5667 5667 5667 5667 5668 5668 5667 5667 5667 5667 5667 5667
5593 5595 5596 5597 5599 5600 5602 5603 5604 5606 5607 5608 5609 5610 5611 5612 5613 5614 5615 5616 5618 5619 5621 5622 5624 5625 5625 5626 5626 5627 5628 5630 5631 5631 5632 5633 5634 5635 5636 5638 5639 5641 5642 5644 5645 5646 5647 5648 5649 5650 5651 5651 5652 5653 5654 5655 5656 5656 5657 5657 5657 5657 5657 5657 5658 5658 5658 5658 5659 5659 5659 5659 5659 5660 5660 5660 5660 5660 5660 5660 5660 5660 5660 5660 5660 5660
5592 5593 5595 5596 5597 5598 5599 5601 5602 5603 5604 5605 5606 5607 5608 5608 5610 5611 5612 5613 5615 5616 5617 5618 5619 5620 5620 5621 5622 5624 5625 5626 5627 5627 5628 5629 5630 5631 5633 5634 5635 5637 5638 5639 5640 5641 5642 5643 5644 5644 5645 5646 5647 5648 5649 5650 5650 5651 5651 5652 5652 5652 5652 5652 5652 5652 5652 5653 5653 5653 5653 5653 5653 5653 5652 5652 5652 5651 5651 5651 5651 5651 5650 5650 5651 5651
5591 5592 5593 5594 5595 5596 5597 5598 5600 5601 5601 5603 5603 5604 5605 5606 5607 5608 5609 5610 5612 5613 5614 5614 5615 5616 5616 5617 5618 5619 5621 5622 5623 5624 5625 5626 5627 5628 5629 5630 5631 5632 5633 5635 5636 5637 5637 5638 5639 5639 5640 5641 5642 5643 5643 5644 5644 5645 5645 5646 5646 5646 5646 5646 5646 5646 5646 5646 5646 5646 5646 5646 5646 5645 5645 5645 5644 5644 5643 5643 5642 5642 5641 5640 5640 5640
5589 5590 5591 5592 5592 5593 5594 5595 5597 5598 5599 5600 5601 5602 5602 5603 5604 5605 5606 5607 5608 5609 5610 5611 5612 5613 5613 5614 5614 5615 5616 5618 5619 5620 5621 5622 5623 5624 5625 5626 5627 5628 5629 5630 5631 5632 5632 5633 5634 5635 5635 5636 5637 5637 5638 5638 5638 5639 5639 5639 5639 5639 5639 5638 5638 5638 5638 5638 5638 5638 5638 5638 5638 5637 5637 5637 5636 5636 5635 5634 5633 5633 5632 5631 5630 5630